SL-14 R/B, 22693

Orbit data source: Space-Track

SL-14 R/B, 22693 is space debris in LEO originally from a launch on Thu, 24 Jun 1993 UTC launched from the Plesetsk Missile And Space Complex (PKMTR). Debris objects in space refer to the collection of defunct objects orbiting the Earth. Examples of debris include non-operational satellites, rocket bodies, and fragments generated from explosions, collisions, or faulty payload assembly.

Loading next visibility...
Identifier
22693, 1993-038G
Orbit
LEO
Last TLE update
17 hours ago
Origin
Manufacturer
Yuzhnoe
Mission
Spacecraft
Bus & Motor
S5M, Unknown motor
Mass
1,600 kg wet, 1,600 kg dry
Launch date (UTC)
1993-06-24 (32 years ago)
Launch vehicle
Unknown
Launch site
Plesetsk Missile And Space Complex (PKMTR)
Object type
Payload
Rocket body
Debris
Shape & HBR
Cyl, 2.7 m
Radar Cross Section
7.351 m², Large (>1 m²)

Expand to show TLE details & history

TLE from 17 hours ago
0 SL-14 R/B
1 22693U 93038G   25183.86145978  .00000000  00000-0 -66069-4 0  9994
2 22693  82.5838 209.2828 0046351  26.0895 146.8310 12.54831239467208
Epoch: 2025-07-02T20:40Z
TLE epoch observation values (Epoch: 2025-07-02T20:40:30.124Z)
Latitude
6.66346°
Longitude
157.15375°
Altitude
1,476.862 km
Speed
7.111 km/s
True Right ascension
01h 53m 39s
True Declination
6° 37' 39"
Sunlit
Object was in daylight at epoch
Visualization orbit readout
Latitude
42.12162°
Longitude
150.84847°
Altitude
1,464.432 km
Speed
7.128 km/s
Apparent Right ascension
01h 24m 10s
Apparent Declination
51° 34' 43"
Sunlit
Object is in daylight
Visualization observer readout
Local Sidereal Time
01:29:14
Azimuth
356.114° N
Elevation
78.304°
Doppler factor
1
Orbital elements
Apogee altitude
1,477.929 km
Perigee altitude
1,405.437 km
Semi-major axis
7,819.82 km
Eccentricity
0.00464
Inclination
82.5838°
RAAN
209.2828°
Arg. of periapsis
26.0895°
True anomaly
Unknown
Mean anomaly
146.831°
Eccentric anomaly
Unknown
Mean motion
3.13869 °/min
Orbital period
114.7 mins
BSTAR
-0.000066069
Loading maneuver chart data...
Loading SW <> Apogee altitude chart data...
Loading historical data...
Loading historical data...
Loading historical data...
Loading historical data...
Loading historical data...
Loading historical data...
Loading historical data...

SL-14 R/B Visibility forecast

Observer location: undefined°, undefined°

Span
Click to sort rows by Start time (UTC) header in descending order
Start Az.
Max El. time (UTC)
Max El. Az.
Max El.
End time (UTC)
End Az.
9 mins2025-07-03 13:42:22.558Z355.974° N2025-07-03 13:43:22.558Z168.702° S44.881°2025-07-03 13:51:22.558Z174.683° S
8 mins2025-07-03 15:34:22.558Z306.987° NW2025-07-03 15:37:22.558Z283.508° WNW16.295°2025-07-03 15:42:22.558Z246.876° WSW
8 mins2025-07-04 00:37:22.558Z105.235° ESE2025-07-04 00:40:22.558Z80.954° E16.902°2025-07-04 00:45:22.558Z42.33° NE
15 mins2025-07-04 02:28:22.558Z188.649° SSW2025-07-04 02:35:22.558Z304.359° NW44.834°2025-07-04 02:43:22.558Z6.539° NNE
7 mins2025-07-04 04:29:22.558Z275.18° WNW2025-07-04 04:32:22.558Z299.27° NW15.504°2025-07-04 04:36:22.558Z329.826° NNW
14 mins2025-07-04 12:33:22.558Z8.926° NNE2025-07-04 12:40:22.558Z77.991° E34.017°2025-07-04 12:47:22.558Z140.997° SSE
|